AIQ396 VTBD-WADD

Flight info

Callsign AIQ396
Flight time 3h 47m
Altitude 35000
Route KIGOB3A KIGOB M904 ENREP N875 PNK G464 AGUDA
Aircraft A320/M-SDE3FGHIRWY/LB1

Departure

Time 2026-04-27 09:16
Airport Don Mueang International Airport (VTBD)

Arrival

Time 2026-04-27 13:03
Airport Denpasar I Gusti Ngurah Rai International Airport (WADD)
Time Latitude Longitude Altitude Speed Heading
2026-04-27 08:58 13.91908 100.60319 17 ft 0 kts 208°
2026-04-27 09:04 13.91909 100.60320 17 ft 2 kts 209°
2026-04-27 09:05 13.91930 100.60333 19 ft 4 kts 217°
2026-04-27 09:05 13.91950 100.60352 19 ft 4 kts 234°
2026-04-27 09:05 13.91961 100.60375 19 ft 4 kts 276°
2026-04-27 09:05 13.91952 100.60396 18 ft 4 kts 300°
2026-04-27 09:06 13.91939 100.60420 19 ft 4 kts 298°
2026-04-27 09:06 13.91929 100.60439 20 ft 3 kts 299°
2026-04-27 09:06 13.91916 100.60464 17 ft 4 kts 299°
2026-04-27 09:06 13.91903 100.60488 18 ft 4 kts 299°
2026-04-27 09:07 13.91890 100.60511 19 ft 3 kts 298°
2026-04-27 09:07 13.91877 100.60532 19 ft 4 kts 333°
2026-04-27 09:07 13.91859 100.60531 20 ft 4 kts 27°
2026-04-27 09:07 13.91835 100.60518 20 ft 4 kts 29°
2026-04-27 09:08 13.91826 100.60513 17 ft 0 kts 28°
2026-04-27 09:09 13.91831 100.60515 19 ft 2 kts 28°
2026-04-27 09:10 13.91848 100.60526 17 ft 4 kts 34°
2026-04-27 09:10 13.91861 100.60559 17 ft 6 kts 99°
2026-04-27 09:10 13.91851 100.60602 17 ft 7 kts 76°
2026-04-27 09:10 13.91886 100.60631 17 ft 7 kts 29°
2026-04-27 09:11 13.91928 100.60655 17 ft 7 kts 29°
2026-04-27 09:11 13.91970 100.60678 18 ft 7 kts 28°
2026-04-27 09:11 13.92013 100.60702 18 ft 7 kts 28°
2026-04-27 09:11 13.92063 100.60730 20 ft 11 kts 28°
2026-04-27 09:12 13.92144 100.60776 18 ft 16 kts 28°
2026-04-27 09:12 13.92257 100.60839 18 ft 21 kts 28°
2026-04-27 09:12 13.92383 100.60910 17 ft 20 kts 28°
2026-04-27 09:12 13.92496 100.60973 17 ft 17 kts 28°
2026-04-27 09:13 13.92594 100.61028 17 ft 14 kts 28°
2026-04-27 09:13 13.92653 100.61087 17 ft 11 kts 90°
2026-04-27 09:13 13.92618 100.61153 16 ft 10 kts 121°
2026-04-27 09:13 13.92574 100.61196 16 ft 8 kts 165°
2026-04-27 09:14 13.92534 100.61184 16 ft 0 kts 208°
2026-04-27 09:15 13.92514 100.61173 16 ft 19 kts 208°
2026-04-27 09:15 13.92191 100.60992 20 ft 85 kts 208°
2026-04-27 09:15 13.91506 100.60607 15 ft 137 kts 208°
2026-04-27 09:15 13.90540 100.60066 29 ft 178 kts 208°
2026-04-27 09:16 13.89432 100.59433 553 ft 182 kts 207°
2026-04-27 09:16 13.88315 100.58816 1220 ft 186 kts 206°
2026-04-27 09:16 13.87155 100.58136 1622 ft 200 kts 218°
2026-04-27 09:16 13.86391 100.56848 1875 ft 228 kts 249°
2026-04-27 09:17 13.85906 100.55204 2146 ft 251 kts 249°
2026-04-27 09:17 13.85108 100.53580 2644 ft 259 kts 227°
2026-04-27 09:17 13.83670 100.52492 3285 ft 260 kts 201°
2026-04-27 09:17 13.81909 100.52222 3932 ft 264 kts 173°
2026-04-27 09:18 13.80131 100.52735 4605 ft 265 kts 160°
2026-04-27 09:18 13.78401 100.53379 5384 ft 265 kts 160°
2026-04-27 09:18 13.76661 100.54026 6057 ft 268 kts 160°
2026-04-27 09:18 13.74891 100.54680 6662 ft 272 kts 160°
2026-04-27 09:19 13.73099 100.55341 7298 ft 275 kts 161°
2026-04-27 09:19 13.71289 100.56006 7958 ft 278 kts 161°
2026-04-27 09:19 13.69463 100.56677 8614 ft 280 kts 162°
2026-04-27 09:19 13.67617 100.57352 9249 ft 283 kts 162°
2026-04-27 09:20 13.65754 100.58030 9855 ft 286 kts 162°
2026-04-27 09:20 13.63894 100.58705 10400 ft 289 kts 162°
2026-04-27 09:20 13.61936 100.59416 10595 ft 309 kts 161°
2026-04-27 09:20 13.59840 100.60175 10720 ft 329 kts 162°
2026-04-27 09:21 13.57617 100.60984 10837 ft 348 kts 161°
2026-04-27 09:21 13.55277 100.61840 11011 ft 364 kts 161°
2026-04-27 09:21 13.52868 100.62724 11418 ft 370 kts 161°
2026-04-27 09:21 13.50458 100.63608 11929 ft 374 kts 161°
2026-04-27 09:22 13.47995 100.64505 12435 ft 377 kts 161°
2026-04-27 09:22 13.45514 100.65407 12964 ft 380 kts 161°
2026-04-27 09:22 13.43009 100.66320 13452 ft 384 kts 161°
2026-04-27 09:22 13.40483 100.67240 13892 ft 387 kts 161°
2026-04-27 09:23 13.37984 100.68300 14326 ft 391 kts 153°
2026-04-27 09:23 13.35642 100.69740 14773 ft 394 kts 149°
2026-04-27 09:23 13.33306 100.71228 15190 ft 397 kts 149°
2026-04-27 09:23 13.30949 100.72726 15616 ft 399 kts 149°
2026-04-27 09:24 13.28611 100.74211 15992 ft 403 kts 149°
2026-04-27 09:24 13.26215 100.75731 16362 ft 407 kts 149°
2026-04-27 09:24 13.23805 100.77257 16802 ft 408 kts 149°
2026-04-27 09:24 13.21379 100.78789 17180 ft 411 kts 149°
2026-04-27 09:25 13.18934 100.80333 17551 ft 414 kts 149°
2026-04-27 09:25 13.16475 100.81888 17928 ft 416 kts 149°
2026-04-27 09:25 13.14001 100.83451 18289 ft 418 kts 149°
2026-04-27 09:25 13.11477 100.84942 18603 ft 420 kts 155°
2026-04-27 09:26 13.08792 100.86015 18915 ft 421 kts 163°
2026-04-27 09:26 13.05999 100.86942 19231 ft 423 kts 163°
2026-04-27 09:26 13.03196 100.87876 19562 ft 425 kts 163°
2026-04-27 09:26 13.00382 100.88815 19877 ft 427 kts 163°
2026-04-27 09:27 12.97550 100.89758 20185 ft 429 kts 163°
2026-04-27 09:27 12.94705 100.90705 20497 ft 431 kts 163°
2026-04-27 09:27 12.91851 100.91657 20807 ft 433 kts 163°
2026-04-27 09:27 12.88980 100.92615 21112 ft 435 kts 163°
2026-04-27 09:28 12.86133 100.93563 21417 ft 437 kts 163°
2026-04-27 09:28 12.83237 100.94526 21723 ft 439 kts 163°
2026-04-27 09:28 12.80331 100.95496 22025 ft 440 kts 163°
2026-04-27 09:28 12.77413 100.96469 22332 ft 442 kts 163°
2026-04-27 09:29 12.74482 100.97445 22625 ft 444 kts 163°
2026-04-27 09:29 12.71535 100.98425 22904 ft 446 kts 163°
2026-04-27 09:29 12.68576 100.99410 23182 ft 448 kts 163°
2026-04-27 09:29 12.65605 101.00391 23449 ft 450 kts 163°
2026-04-27 09:30 12.62645 101.01297 23669 ft 451 kts 165°
2026-04-27 09:30 12.59622 101.02160 23905 ft 452 kts 165°
2026-04-27 09:30 12.56576 101.02994 24090 ft 455 kts 166°
2026-04-27 09:30 12.53511 101.03825 24305 ft 456 kts 165°
2026-04-27 09:31 12.50448 101.04665 24606 ft 455 kts 165°
2026-04-27 09:31 12.47388 101.05521 24842 ft 456 kts 164°
2026-04-27 09:31 12.44327 101.06390 25082 ft 457 kts 164°
2026-04-27 09:31 12.41259 101.07267 25293 ft 459 kts 164°
2026-04-27 09:32 12.38219 101.08138 25465 ft 461 kts 164°
2026-04-27 09:32 12.35124 101.09026 25700 ft 462 kts 164°
2026-04-27 09:32 12.32025 101.09929 25921 ft 464 kts 164°
2026-04-27 09:32 12.28912 101.10848 26069 ft 467 kts 163°
2026-04-27 09:33 12.25783 101.11780 26268 ft 469 kts 163°
2026-04-27 09:33 12.22643 101.12716 26457 ft 471 kts 163°
2026-04-27 09:33 12.19491 101.13654 26651 ft 473 kts 163°
2026-04-27 09:33 12.16323 101.14593 26869 ft 474 kts 163°
2026-04-27 09:34 12.13153 101.15530 27071 ft 475 kts 163°
2026-04-27 09:34 12.10017 101.16454 27283 ft 476 kts 163°
2026-04-27 09:34 12.06832 101.17391 27475 ft 477 kts 163°
2026-04-27 09:34 12.03637 101.18330 27699 ft 478 kts 163°
2026-04-27 09:35 12.00443 101.19273 27895 ft 479 kts 163°
2026-04-27 09:35 11.97234 101.20224 28050 ft 481 kts 163°
2026-04-27 09:35 11.94023 101.21175 28285 ft 481 kts 163°
2026-04-27 09:35 11.90802 101.22130 28472 ft 482 kts 163°
2026-04-27 09:36 11.87573 101.23087 28640 ft 484 kts 163°
2026-04-27 09:36 11.84338 101.24043 28793 ft 486 kts 163°
2026-04-27 09:36 11.81127 101.24988 28973 ft 486 kts 163°
2026-04-27 09:36 11.77879 101.25940 29246 ft 485 kts 163°
2026-04-27 09:37 11.74635 101.26892 29518 ft 484 kts 163°
2026-04-27 09:37 11.71401 101.27840 29813 ft 483 kts 163°
2026-04-27 09:37 11.68174 101.28789 30057 ft 482 kts 163°
2026-04-27 09:37 11.64956 101.29739 30257 ft 482 kts 163°
2026-04-27 09:38 11.61733 101.30692 30462 ft 482 kts 163°
2026-04-27 09:38 11.58516 101.31640 30675 ft 481 kts 163°
2026-04-27 09:38 11.55298 101.32588 30899 ft 481 kts 163°
2026-04-27 09:38 11.52090 101.33533 31116 ft 480 kts 163°
2026-04-27 09:39 11.48927 101.34464 31352 ft 479 kts 163°
2026-04-27 09:39 11.45728 101.35405 31560 ft 479 kts 164°
2026-04-27 09:39 11.42526 101.36347 31749 ft 479 kts 164°
2026-04-27 09:39 11.39328 101.37287 31971 ft 478 kts 164°
2026-04-27 09:40 11.36129 101.38227 32201 ft 477 kts 164°
2026-04-27 09:40 11.32945 101.39164 32451 ft 476 kts 164°
2026-04-27 09:40 11.29767 101.40096 32701 ft 475 kts 164°
2026-04-27 09:40 11.26593 101.41024 32902 ft 475 kts 165°
2026-04-27 09:41 11.23463 101.41936 33124 ft 474 kts 165°
2026-04-27 09:41 11.20299 101.42863 33362 ft 473 kts 164°
2026-04-27 09:41 11.17137 101.43796 33587 ft 472 kts 165°
2026-04-27 09:41 11.13982 101.44728 33809 ft 472 kts 165°
2026-04-27 09:42 11.10833 101.45655 34009 ft 471 kts 165°
2026-04-27 09:42 11.07684 101.46579 34211 ft 470 kts 165°
2026-04-27 09:42 11.04541 101.47499 34401 ft 470 kts 165°
2026-04-27 09:42 11.01403 101.48418 34591 ft 469 kts 164°
2026-04-27 09:43 10.98271 101.49336 34761 ft 469 kts 165°
2026-04-27 09:43 10.92048 101.51159 34833 ft 468 kts 165°
2026-04-27 09:44 10.85791 101.52991 34831 ft 468 kts 165°
2026-04-27 09:44 10.79532 101.54823 34833 ft 468 kts 165°
2026-04-27 09:45 10.73277 101.56658 34832 ft 468 kts 165°
2026-04-27 09:45 10.67029 101.58482 34833 ft 466 kts 164°
2026-04-27 09:46 10.60833 101.60291 34833 ft 466 kts 164°
2026-04-27 09:46 10.54597 101.62114 34834 ft 466 kts 165°
2026-04-27 09:47 10.48357 101.63934 34834 ft 467 kts 164°
2026-04-27 09:47 10.42115 101.65754 34836 ft 467 kts 164°
2026-04-27 09:48 10.35877 101.67580 34835 ft 467 kts 165°
2026-04-27 09:48 10.29679 101.69386 34839 ft 466 kts 165°
2026-04-27 09:49 10.23440 101.71199 34842 ft 466 kts 165°
2026-04-27 09:49 10.17201 101.73010 34843 ft 466 kts 164°
2026-04-27 09:50 10.10971 101.74824 34844 ft 466 kts 165°
2026-04-27 09:50 10.04782 101.76626 34837 ft 466 kts 164°
2026-04-27 09:51 9.98554 101.78441 34835 ft 466 kts 164°
2026-04-27 09:51 9.92332 101.80251 34843 ft 465 kts 164°
2026-04-27 09:52 9.86116 101.82050 34850 ft 464 kts 164°
2026-04-27 09:52 9.79906 101.83850 34849 ft 464 kts 164°
2026-04-27 09:53 9.73749 101.85644 34847 ft 464 kts 164°
2026-04-27 09:53 9.67552 101.87446 34846 ft 463 kts 164°
2026-04-27 09:54 9.61351 101.89242 34844 ft 463 kts 164°
2026-04-27 09:54 9.55157 101.91040 34848 ft 463 kts 164°
2026-04-27 09:55 9.48971 101.92833 34845 ft 462 kts 164°
2026-04-27 09:55 9.39735 101.95507 34839 ft 462 kts 164°
2026-04-27 09:56 9.33553 101.97300 34838 ft 462 kts 164°
2026-04-27 09:56 9.27381 101.99116 34835 ft 462 kts 162°
2026-04-27 09:57 9.21337 102.01207 34845 ft 462 kts 160°
2026-04-27 09:57 9.15309 102.03441 34847 ft 461 kts 160°
2026-04-27 09:58 9.09267 102.05630 34847 ft 461 kts 160°
2026-04-27 09:58 9.03211 102.07752 34850 ft 460 kts 161°
2026-04-27 09:59 8.97160 102.09865 34846 ft 460 kts 161°
2026-04-27 09:59 8.91154 102.11978 34843 ft 460 kts 160°
2026-04-27 10:00 8.85113 102.14125 34856 ft 460 kts 160°
2026-04-27 10:00 8.79063 102.16252 34855 ft 460 kts 160°
2026-04-27 10:01 8.73018 102.18365 34849 ft 459 kts 160°
2026-04-27 10:01 8.67024 102.20467 34842 ft 460 kts 160°
2026-04-27 10:02 8.60958 102.22603 34802 ft 463 kts 160°
2026-04-27 10:02 8.54850 102.24760 34803 ft 466 kts 160°
2026-04-27 10:03 8.48707 102.26919 34806 ft 468 kts 160°
2026-04-27 10:03 8.42590 102.29071 34810 ft 469 kts 160°
2026-04-27 10:04 8.36409 102.31238 34813 ft 471 kts 160°
2026-04-27 10:04 8.30220 102.33405 34818 ft 471 kts 160°
2026-04-27 10:05 8.24022 102.35578 34825 ft 471 kts 160°
2026-04-27 10:05 8.17830 102.37759 34833 ft 471 kts 160°
2026-04-27 10:06 8.11677 102.39917 34833 ft 472 kts 160°
2026-04-27 10:06 8.05472 102.42090 34822 ft 473 kts 160°
2026-04-27 10:07 7.99248 102.44270 34814 ft 474 kts 160°
2026-04-27 10:07 7.93011 102.46454 34815 ft 475 kts 160°
2026-04-27 10:08 7.86767 102.48643 34818 ft 475 kts 160°
2026-04-27 10:08 7.80558 102.50817 34825 ft 476 kts 160°
2026-04-27 10:09 7.74303 102.53008 34826 ft 476 kts 160°
2026-04-27 10:09 7.68047 102.55195 34830 ft 476 kts 160°
2026-04-27 10:10 7.61791 102.57382 34837 ft 476 kts 160°
2026-04-27 10:10 7.55579 102.59563 34839 ft 476 kts 160°
2026-04-27 10:11 7.49327 102.61749 34837 ft 476 kts 160°
2026-04-27 10:11 7.43070 102.63939 34839 ft 476 kts 160°
2026-04-27 10:12 7.36812 102.66115 34840 ft 475 kts 160°
2026-04-27 10:12 7.30566 102.68295 34844 ft 475 kts 160°
2026-04-27 10:13 7.24368 102.70464 34844 ft 475 kts 160°
2026-04-27 10:13 7.18131 102.72642 34842 ft 474 kts 160°
2026-04-27 10:14 7.11897 102.74819 34837 ft 474 kts 160°
2026-04-27 10:14 7.05661 102.76991 34837 ft 474 kts 160°
2026-04-27 10:15 6.99475 102.79151 34837 ft 474 kts 160°
2026-04-27 10:15 6.93245 102.81331 34837 ft 474 kts 160°
2026-04-27 10:16 6.87123 102.83755 34837 ft 473 kts 150°
2026-04-27 10:16 6.81673 102.87439 34834 ft 472 kts 144°
2026-04-27 10:17 6.76335 102.91216 34831 ft 472 kts 144°
2026-04-27 10:17 6.70952 102.95010 34829 ft 473 kts 144°
2026-04-27 10:18 6.65568 102.98802 34834 ft 473 kts 144°
2026-04-27 10:18 6.60186 103.02604 34835 ft 473 kts 144°
2026-04-27 10:19 6.54810 103.06404 34837 ft 472 kts 144°
2026-04-27 10:19 6.49468 103.10179 34838 ft 472 kts 144°
2026-04-27 10:20 6.44089 103.13973 34836 ft 472 kts 144°
2026-04-27 10:20 6.38709 103.17767 34833 ft 473 kts 144°
2026-04-27 10:21 6.33328 103.21569 34829 ft 473 kts 144°
2026-04-27 10:21 6.27980 103.25344 34828 ft 473 kts 144°
2026-04-27 10:22 6.22594 103.29145 34834 ft 473 kts 144°
2026-04-27 10:22 6.17210 103.32939 34836 ft 473 kts 144°
2026-04-27 10:23 6.11822 103.36735 34836 ft 473 kts 144°
2026-04-27 10:23 6.06447 103.40542 34838 ft 473 kts 144°
2026-04-27 10:24 6.01113 103.44320 34838 ft 473 kts 144°
2026-04-27 10:24 5.95733 103.48116 34837 ft 473 kts 144°
2026-04-27 10:25 5.90349 103.51910 34834 ft 473 kts 144°
2026-04-27 10:25 5.84965 103.55710 34832 ft 473 kts 144°
2026-04-27 10:26 5.79616 103.59482 34835 ft 473 kts 144°
2026-04-27 10:26 5.74232 103.63285 34836 ft 473 kts 144°
2026-04-27 10:27 5.68846 103.67092 34834 ft 473 kts 144°
2026-04-27 10:27 5.63460 103.70891 34835 ft 473 kts 144°
2026-04-27 10:28 5.58110 103.74663 34835 ft 473 kts 144°
2026-04-27 10:28 5.52721 103.78457 34833 ft 473 kts 144°
2026-04-27 10:29 5.47329 103.82262 34830 ft 474 kts 144°
2026-04-27 10:29 5.41939 103.86064 34829 ft 474 kts 144°
2026-04-27 10:30 5.36572 103.89845 34823 ft 475 kts 144°
2026-04-27 10:30 5.31165 103.93654 34825 ft 475 kts 144°
2026-04-27 10:31 5.25755 103.97466 34828 ft 475 kts 144°
2026-04-27 10:31 5.20334 104.01274 34832 ft 476 kts 144°
2026-04-27 10:32 5.14956 104.05061 34850 ft 475 kts 145°
2026-04-27 10:32 5.09564 104.08858 34861 ft 472 kts 145°
2026-04-27 10:33 5.04196 104.12634 34862 ft 471 kts 145°
2026-04-27 10:33 4.98841 104.16400 34862 ft 469 kts 145°
2026-04-27 10:34 4.93505 104.20158 34860 ft 468 kts 145°
2026-04-27 10:34 4.88236 104.23917 34836 ft 468 kts 140°
2026-04-27 10:35 4.83713 104.28603 34818 ft 469 kts 131°
2026-04-27 10:35 4.79407 104.33526 34817 ft 470 kts 131°
2026-04-27 10:36 4.75099 104.38447 34845 ft 469 kts 131°
2026-04-27 10:36 4.70823 104.43318 34852 ft 468 kts 131°
2026-04-27 10:37 4.66518 104.48206 34845 ft 468 kts 131°
2026-04-27 10:37 4.62216 104.53093 34846 ft 467 kts 131°
2026-04-27 10:38 4.57930 104.57984 34848 ft 467 kts 131°
2026-04-27 10:38 4.53677 104.62837 34839 ft 467 kts 131°
2026-04-27 10:39 4.49387 104.67716 34841 ft 467 kts 131°
2026-04-27 10:39 4.45096 104.72596 34844 ft 466 kts 131°
2026-04-27 10:40 4.40815 104.77473 34845 ft 466 kts 131°
2026-04-27 10:40 4.36561 104.82316 34847 ft 466 kts 131°
2026-04-27 10:41 4.32285 104.87184 34845 ft 465 kts 131°
2026-04-27 10:41 4.28014 104.92053 34850 ft 465 kts 131°
2026-04-27 10:42 4.23744 104.96915 34841 ft 465 kts 131°
2026-04-27 10:42 4.19499 105.01740 34839 ft 465 kts 131°
2026-04-27 10:43 4.15242 105.06610 34841 ft 464 kts 131°
2026-04-27 10:43 4.10986 105.11474 34844 ft 464 kts 131°
2026-04-27 10:44 4.06725 105.16335 34837 ft 464 kts 131°
2026-04-27 10:44 4.02466 105.21196 34837 ft 464 kts 131°
2026-04-27 10:45 3.98241 105.26025 34843 ft 464 kts 131°
2026-04-27 10:45 3.93980 105.30880 34840 ft 464 kts 131°
2026-04-27 10:46 3.89703 105.35723 34841 ft 464 kts 131°
2026-04-27 10:46 3.85462 105.40537 34841 ft 464 kts 131°
2026-04-27 10:47 3.81195 105.45381 34837 ft 464 kts 131°
2026-04-27 10:47 3.76931 105.50232 34832 ft 464 kts 131°
2026-04-27 10:48 3.72664 105.55085 34837 ft 464 kts 131°
2026-04-27 10:48 3.68437 105.59904 34844 ft 464 kts 131°
2026-04-27 10:49 3.64190 105.64765 34844 ft 464 kts 131°
2026-04-27 10:49 3.59930 105.69615 34845 ft 464 kts 131°
2026-04-27 10:50 3.55679 105.74464 34850 ft 463 kts 131°
2026-04-27 10:50 3.51459 105.79281 34850 ft 463 kts 131°
2026-04-27 10:51 3.47219 105.84131 34845 ft 463 kts 130°
2026-04-27 10:51 3.42972 105.88978 34845 ft 463 kts 131°
2026-04-27 10:52 3.38712 105.93813 34848 ft 463 kts 131°
2026-04-27 10:52 3.34484 105.98617 34847 ft 463 kts 131°
2026-04-27 10:53 3.28109 106.05873 34856 ft 462 kts 130°
2026-04-27 10:54 3.23866 106.10700 34855 ft 461 kts 130°
2026-04-27 10:54 3.19636 106.15520 34858 ft 461 kts 130°
2026-04-27 10:55 3.15435 106.20302 34857 ft 460 kts 130°
2026-04-27 10:55 3.11216 106.25119 34857 ft 460 kts 130°
2026-04-27 10:56 3.06996 106.29934 34858 ft 460 kts 130°
2026-04-27 10:56 3.02772 106.34738 34855 ft 460 kts 130°
2026-04-27 10:57 2.98575 106.39509 34855 ft 460 kts 130°
2026-04-27 10:57 2.94356 106.44315 34853 ft 459 kts 130°
2026-04-27 10:58 2.90136 106.49117 34857 ft 459 kts 130°
2026-04-27 10:58 2.85930 106.53924 34856 ft 459 kts 130°
2026-04-27 10:59 2.81754 106.58699 34857 ft 459 kts 130°
2026-04-27 10:59 2.77546 106.63496 34854 ft 459 kts 130°
2026-04-27 11:00 2.71237 106.70698 34854 ft 459 kts 130°
2026-04-27 11:00 2.67034 106.75497 34850 ft 459 kts 130°
2026-04-27 11:01 2.62851 106.80267 34848 ft 459 kts 130°
2026-04-27 11:01 2.58639 106.85070 34847 ft 459 kts 130°
2026-04-27 11:02 2.54428 106.89877 34846 ft 459 kts 130°
2026-04-27 11:02 2.50218 106.94688 34848 ft 459 kts 130°
2026-04-27 11:03 2.46033 106.99460 34851 ft 460 kts 130°
2026-04-27 11:03 2.41809 107.04260 34852 ft 460 kts 130°
2026-04-27 11:04 2.37594 107.09069 34845 ft 460 kts 130°
2026-04-27 11:04 2.33001 107.13518 34846 ft 461 kts 136°
2026-04-27 11:05 2.28310 107.17884 34848 ft 461 kts 136°
2026-04-27 11:05 2.23647 107.22222 34846 ft 461 kts 136°
2026-04-27 11:06 2.18954 107.26592 34847 ft 461 kts 136°
2026-04-27 11:06 2.14274 107.30970 34855 ft 461 kts 135°
2026-04-27 11:07 2.09593 107.35341 34858 ft 460 kts 136°
2026-04-27 11:07 2.04938 107.39677 34857 ft 460 kts 136°
2026-04-27 11:08 2.00254 107.44041 34850 ft 461 kts 136°
2026-04-27 11:08 1.95570 107.48414 34845 ft 461 kts 136°
2026-04-27 11:09 1.90891 107.52793 34850 ft 461 kts 136°
2026-04-27 11:09 1.86242 107.57148 34850 ft 461 kts 136°
2026-04-27 11:10 1.81554 107.61531 34848 ft 461 kts 136°
2026-04-27 11:10 1.76873 107.65917 34849 ft 461 kts 135°
2026-04-27 11:11 1.72188 107.70308 34849 ft 462 kts 136°
2026-04-27 11:11 1.67497 107.74695 34852 ft 462 kts 136°
2026-04-27 11:12 1.62833 107.79055 34847 ft 462 kts 136°
2026-04-27 11:12 1.58135 107.83447 34845 ft 463 kts 136°
2026-04-27 11:13 1.53432 107.87841 34848 ft 463 kts 136°
2026-04-27 11:13 1.48727 107.92236 34846 ft 463 kts 136°
2026-04-27 11:14 1.44056 107.96609 34846 ft 463 kts 136°
2026-04-27 11:14 1.39352 108.01000 34855 ft 462 kts 136°
2026-04-27 11:15 1.34639 108.05373 34854 ft 462 kts 136°
2026-04-27 11:15 1.29925 108.09738 34854 ft 462 kts 136°
2026-04-27 11:16 1.25239 108.14086 34859 ft 465 kts 136°
2026-04-27 11:16 1.20505 108.18480 34866 ft 464 kts 136°
2026-04-27 11:17 1.15778 108.22866 34865 ft 463 kts 136°
2026-04-27 11:17 1.11057 108.27238 34862 ft 462 kts 136°
2026-04-27 11:18 1.06375 108.31577 34858 ft 462 kts 136°
2026-04-27 11:18 1.01666 108.35944 34855 ft 462 kts 136°
2026-04-27 11:19 0.96959 108.40315 34855 ft 462 kts 136°
2026-04-27 11:19 0.92248 108.44675 34849 ft 462 kts 136°
2026-04-27 11:20 0.87535 108.49044 34842 ft 462 kts 136°
2026-04-27 11:20 0.82855 108.53393 34841 ft 463 kts 136°
2026-04-27 11:21 0.78137 108.57768 34845 ft 463 kts 136°
2026-04-27 11:21 0.73412 108.62140 34846 ft 463 kts 136°
2026-04-27 11:22 0.68691 108.66515 34849 ft 463 kts 136°
2026-04-27 11:22 0.63969 108.70889 34853 ft 463 kts 136°
2026-04-27 11:23 0.59284 108.75226 34855 ft 462 kts 136°
2026-04-27 11:23 0.54570 108.79600 34849 ft 462 kts 136°
2026-04-27 11:24 0.49855 108.83973 34845 ft 463 kts 136°
2026-04-27 11:24 0.45133 108.88343 34847 ft 463 kts 136°
2026-04-27 11:25 0.40440 108.92690 34846 ft 463 kts 136°
2026-04-27 11:25 0.35720 108.97067 34847 ft 463 kts 136°
2026-04-27 11:26 0.31000 109.01448 34846 ft 463 kts 136°
2026-04-27 11:26 0.27076 109.05086 34847 ft 463 kts 136°
2026-04-27 11:27 0.21585 109.10174 34851 ft 463 kts 136°
2026-04-27 11:27 0.16858 109.14545 34854 ft 463 kts 136°
2026-04-27 11:28 0.12924 109.18182 34851 ft 464 kts 136°
2026-04-27 11:28 0.08188 109.22563 34851 ft 464 kts 136°
2026-04-27 11:29 0.03456 109.26946 34851 ft 464 kts 136°
2026-04-27 11:29 -0.02047 109.32051 34860 ft 464 kts 136°
2026-04-27 11:30 -0.06014 109.35726 34862 ft 465 kts 136°
2026-04-27 11:30 -0.10767 109.40037 34863 ft 465 kts 137°
2026-04-27 11:31 -0.15700 109.44227 34864 ft 465 kts 139°
2026-04-27 11:31 -0.20662 109.48380 34861 ft 466 kts 139°
2026-04-27 11:32 -0.25586 109.52591 34872 ft 467 kts 138°
2026-04-27 11:32 -0.30481 109.56791 34873 ft 467 kts 138°
2026-04-27 11:33 -0.36255 109.61717 34873 ft 467 kts 138°
2026-04-27 11:33 -0.40356 109.65221 34879 ft 466 kts 138°
2026-04-27 11:34 -0.45283 109.69432 34876 ft 466 kts 138°
2026-04-27 11:34 -0.50176 109.73611 34875 ft 466 kts 138°
2026-04-27 11:35 -0.55097 109.77811 34872 ft 465 kts 138°
2026-04-27 11:35 -0.60014 109.82014 34875 ft 465 kts 138°
2026-04-27 11:36 -0.64927 109.86219 34874 ft 465 kts 138°
2026-04-27 11:36 -0.69835 109.90417 34873 ft 465 kts 138°
2026-04-27 11:37 -0.74712 109.94583 34871 ft 464 kts 138°
2026-04-27 11:37 -0.79625 109.98782 34870 ft 464 kts 138°
2026-04-27 11:38 -0.84528 110.02974 34889 ft 462 kts 138°
2026-04-27 11:38 -0.89398 110.07138 34898 ft 459 kts 138°
2026-04-27 11:39 -0.94205 110.11257 34896 ft 457 kts 138°
2026-04-27 11:39 -0.99026 110.15382 34895 ft 456 kts 138°
2026-04-27 11:40 -1.03844 110.19493 34889 ft 455 kts 138°
2026-04-27 11:40 -1.08657 110.23607 34883 ft 455 kts 137°
2026-04-27 11:41 -1.13414 110.27706 34894 ft 454 kts 137°
2026-04-27 11:41 -1.18190 110.31843 34891 ft 454 kts 138°
2026-04-27 11:42 -1.23020 110.35923 34884 ft 454 kts 138°
2026-04-27 11:42 -1.27833 110.40012 34879 ft 454 kts 138°
2026-04-27 11:43 -1.32569 110.44121 34878 ft 454 kts 136°
2026-04-27 11:43 -1.37251 110.48346 34871 ft 453 kts 136°
2026-04-27 11:44 -1.41923 110.52589 34864 ft 454 kts 136°
2026-04-27 11:44 -1.46617 110.56806 34862 ft 454 kts 136°
2026-04-27 11:45 -1.51323 110.61012 34868 ft 454 kts 136°
2026-04-27 11:45 -1.56002 110.65188 34868 ft 454 kts 136°
2026-04-27 11:46 -1.60708 110.69396 34866 ft 454 kts 136°
2026-04-27 11:46 -1.65408 110.73611 34866 ft 454 kts 136°
2026-04-27 11:47 -1.70110 110.77823 34868 ft 454 kts 136°
2026-04-27 11:47 -1.74784 110.82006 34863 ft 454 kts 136°
2026-04-27 11:48 -1.79493 110.86221 34861 ft 455 kts 137°
2026-04-27 11:48 -1.84206 110.90443 34862 ft 455 kts 137°
2026-04-27 11:49 -1.88924 110.94669 34857 ft 455 kts 137°
2026-04-27 11:49 -1.93610 110.98869 34861 ft 456 kts 137°
2026-04-27 11:50 -1.98322 111.03104 34861 ft 455 kts 137°
2026-04-27 11:50 -2.03042 111.07333 34860 ft 455 kts 137°
2026-04-27 11:51 -2.07764 111.11556 34862 ft 455 kts 137°
2026-04-27 11:52 -2.14831 111.17849 34846 ft 456 kts 137°
2026-04-27 11:52 -2.19561 111.22070 34848 ft 456 kts 137°
2026-04-27 11:53 -2.24294 111.26301 34851 ft 456 kts 137°
2026-04-27 11:53 -2.29033 111.30530 34852 ft 456 kts 137°
2026-04-27 11:54 -2.33741 111.34729 34854 ft 457 kts 137°
2026-04-27 11:54 -2.38479 111.38959 34856 ft 457 kts 137°
2026-04-27 11:55 -2.43220 111.43189 34860 ft 457 kts 137°
2026-04-27 11:55 -2.47959 111.47422 34860 ft 457 kts 137°
2026-04-27 11:56 -2.52668 111.51625 34853 ft 457 kts 137°
2026-04-27 11:56 -2.57408 111.55860 34854 ft 457 kts 137°
2026-04-27 11:57 -2.62146 111.60097 34855 ft 457 kts 137°
2026-04-27 11:57 -2.66890 111.64333 34857 ft 457 kts 137°
2026-04-27 11:58 -2.71686 111.68508 34857 ft 458 kts 142°
2026-04-27 11:58 -2.77152 111.71793 34858 ft 459 kts 149°
2026-04-27 11:59 -2.82673 111.74924 34857 ft 459 kts 149°
2026-04-27 11:59 -2.88234 111.78080 34852 ft 460 kts 148°
2026-04-27 12:00 -2.93800 111.81243 34847 ft 460 kts 148°
2026-04-27 12:00 -2.99373 111.84409 34847 ft 461 kts 148°
2026-04-27 12:01 -3.04914 111.87553 34852 ft 461 kts 148°
2026-04-27 12:01 -3.10486 111.90729 34854 ft 461 kts 148°
2026-04-27 12:02 -3.16060 111.93907 34857 ft 461 kts 148°
2026-04-27 12:02 -3.21637 111.97080 34856 ft 461 kts 148°
2026-04-27 12:03 -3.27180 112.00228 34855 ft 461 kts 148°
2026-04-27 12:03 -3.32762 112.03397 34857 ft 461 kts 148°
2026-04-27 12:04 -3.38338 112.06571 34857 ft 461 kts 148°
2026-04-27 12:04 -3.43909 112.09756 34857 ft 461 kts 148°
2026-04-27 12:05 -3.49447 112.12909 34859 ft 461 kts 148°
2026-04-27 12:05 -3.55026 112.16077 34857 ft 461 kts 149°
2026-04-27 12:06 -3.60608 112.19249 34852 ft 461 kts 149°
2026-04-27 12:06 -3.66189 112.22422 34853 ft 461 kts 149°
2026-04-27 12:07 -3.71772 112.25602 34855 ft 462 kts 149°
2026-04-27 12:07 -3.77314 112.28767 34858 ft 462 kts 149°
2026-04-27 12:08 -3.82895 112.31950 34851 ft 462 kts 149°
2026-04-27 12:08 -3.88482 112.35125 34850 ft 462 kts 149°
2026-04-27 12:09 -3.94060 112.38303 34863 ft 461 kts 149°
2026-04-27 12:09 -3.99588 112.41455 34865 ft 460 kts 149°
2026-04-27 12:10 -4.05146 112.44625 34865 ft 460 kts 149°
2026-04-27 12:10 -4.10703 112.47803 34861 ft 460 kts 149°
2026-04-27 12:11 -4.16256 112.50976 34855 ft 460 kts 149°
2026-04-27 12:11 -4.21823 112.54137 34853 ft 460 kts 149°
2026-04-27 12:12 -4.27342 112.57279 34861 ft 459 kts 149°
2026-04-27 12:12 -4.32882 112.60446 34865 ft 458 kts 149°
2026-04-27 12:13 -4.38417 112.63611 34866 ft 458 kts 149°
2026-04-27 12:13 -4.43952 112.66768 34866 ft 460 kts 149°
2026-04-27 12:14 -4.49529 112.69950 34855 ft 467 kts 149°
2026-04-27 12:14 -4.55184 112.73178 34857 ft 468 kts 149°
2026-04-27 12:15 -4.60854 112.76411 34858 ft 470 kts 149°
2026-04-27 12:15 -4.66533 112.79656 34858 ft 469 kts 149°
2026-04-27 12:16 -4.72201 112.82903 34862 ft 470 kts 149°
2026-04-27 12:16 -4.77837 112.86126 34860 ft 470 kts 149°
2026-04-27 12:17 -4.83519 112.89370 34856 ft 470 kts 149°
2026-04-27 12:17 -4.89204 112.92611 34858 ft 470 kts 149°
2026-04-27 12:18 -4.94890 112.95859 34852 ft 470 kts 149°
2026-04-27 12:18 -5.00540 112.99091 34852 ft 471 kts 149°
2026-04-27 12:19 -5.06231 113.02351 34850 ft 471 kts 149°
2026-04-27 12:19 -5.11929 113.05610 34853 ft 472 kts 149°
2026-04-27 12:20 -5.17633 113.08869 34855 ft 472 kts 149°
2026-04-27 12:20 -5.23299 113.12102 34863 ft 472 kts 149°
2026-04-27 12:21 -5.28998 113.15369 34854 ft 472 kts 149°
2026-04-27 12:21 -5.34710 113.18641 34854 ft 473 kts 149°
2026-04-27 12:22 -5.40424 113.21913 34852 ft 473 kts 149°
2026-04-27 12:22 -5.46146 113.25190 34855 ft 474 kts 149°
2026-04-27 12:23 -5.51827 113.28452 34858 ft 474 kts 149°
2026-04-27 12:23 -5.57552 113.31731 34860 ft 474 kts 149°
2026-04-27 12:24 -5.63285 113.35006 34855 ft 474 kts 149°
2026-04-27 12:24 -5.68984 113.38276 34854 ft 475 kts 149°
2026-04-27 12:25 -5.74722 113.41570 34859 ft 475 kts 149°
2026-04-27 12:25 -5.80467 113.44861 34862 ft 475 kts 149°
2026-04-27 12:26 -5.86213 113.48151 34863 ft 475 kts 149°
2026-04-27 12:26 -5.91960 113.51447 34863 ft 475 kts 149°
2026-04-27 12:27 -5.97705 113.54749 34860 ft 476 kts 149°
2026-04-27 12:27 -6.03410 113.58026 34862 ft 476 kts 149°
2026-04-27 12:28 -6.09158 113.61327 34861 ft 476 kts 149°
2026-04-27 12:28 -6.14906 113.64632 34862 ft 476 kts 149°
2026-04-27 12:29 -6.20657 113.67931 34863 ft 476 kts 149°
2026-04-27 12:29 -6.26368 113.71209 34862 ft 476 kts 149°
2026-04-27 12:30 -6.32118 113.74510 34866 ft 476 kts 149°
2026-04-27 12:30 -6.37871 113.77817 34870 ft 476 kts 149°
2026-04-27 12:31 -6.43619 113.81124 34877 ft 476 kts 149°
2026-04-27 12:31 -6.49313 113.84421 34879 ft 475 kts 148°
2026-04-27 12:32 -6.55033 113.87751 34875 ft 475 kts 148°
2026-04-27 12:32 -6.60752 113.91088 34872 ft 475 kts 148°
2026-04-27 12:33 -6.66472 113.94418 34879 ft 475 kts 148°
2026-04-27 12:33 -6.72190 113.97741 34874 ft 475 kts 148°
2026-04-27 12:34 -6.77870 114.01049 34871 ft 475 kts 148°
2026-04-27 12:34 -6.83578 114.04388 34873 ft 475 kts 148°
2026-04-27 12:35 -6.89293 114.07720 34873 ft 475 kts 148°
2026-04-27 12:35 -6.95008 114.11048 34876 ft 474 kts 148°
2026-04-27 12:36 -7.00678 114.14349 34884 ft 474 kts 148°
2026-04-27 12:36 -7.06366 114.17672 34702 ft 468 kts 148°
2026-04-27 12:36 -7.09174 114.19310 34474 ft 465 kts 148°
2026-04-27 12:37 -7.10122 114.19863 34397 ft 465 kts 148°
2026-04-27 12:39 -7.14951 114.22530 34006 ft 466 kts 149°
2026-04-27 12:39 -7.17761 114.24155 33770 ft 466 kts 148°
2026-04-27 12:40 -7.20547 114.25827 33514 ft 466 kts 147°
2026-04-27 12:40 -7.23323 114.27515 33261 ft 466 kts 147°
2026-04-27 12:40 -7.26105 114.29197 33029 ft 467 kts 147°
2026-04-27 12:40 -7.28864 114.30844 32776 ft 467 kts 148°
2026-04-27 12:41 -7.31667 114.32494 32524 ft 467 kts 148°
2026-04-27 12:41 -7.34481 114.34133 32281 ft 467 kts 148°
2026-04-27 12:41 -7.37298 114.35765 32040 ft 468 kts 148°
2026-04-27 12:41 -7.40122 114.37401 31800 ft 469 kts 148°
2026-04-27 12:42 -7.42950 114.39044 31130 ft 471 kts 148°
2026-04-27 12:42 -7.45858 114.40634 30115 ft 479 kts 154°
2026-04-27 12:42 -7.48946 114.41869 29476 ft 475 kts 158°
2026-04-27 12:42 -7.51976 114.43041 28802 ft 471 kts 158°
2026-04-27 12:43 -7.55015 114.44224 28141 ft 466 kts 157°
2026-04-27 12:43 -7.58022 114.45399 27489 ft 462 kts 157°
2026-04-27 12:43 -7.61008 114.46566 26854 ft 459 kts 157°
2026-04-27 12:43 -7.63978 114.47721 26210 ft 456 kts 157°
2026-04-27 12:44 -7.66926 114.48867 25577 ft 453 kts 157°
2026-04-27 12:44 -7.69858 114.50005 24942 ft 450 kts 156°
2026-04-27 12:44 -7.72772 114.51137 24320 ft 448 kts 156°
2026-04-27 12:44 -7.75672 114.52261 23717 ft 445 kts 156°
2026-04-27 12:45 -7.78554 114.53374 23038 ft 442 kts 156°
2026-04-27 12:45 -7.81383 114.54467 22335 ft 440 kts 156°
2026-04-27 12:45 -7.84236 114.55571 21639 ft 439 kts 156°
2026-04-27 12:45 -7.87077 114.56674 20962 ft 437 kts 156°
2026-04-27 12:46 -7.89906 114.57777 20300 ft 434 kts 156°
2026-04-27 12:46 -7.92716 114.58875 19669 ft 432 kts 156°
2026-04-27 12:46 -7.95484 114.59950 19403 ft 420 kts 156°
2026-04-27 12:46 -7.98175 114.60991 19123 ft 409 kts 156°
2026-04-27 12:47 -8.00819 114.62013 18645 ft 405 kts 156°
2026-04-27 12:47 -8.03406 114.63018 18130 ft 403 kts 156°
2026-04-27 12:47 -8.06013 114.64030 17557 ft 400 kts 156°
2026-04-27 12:47 -8.08600 114.65033 17041 ft 397 kts 156°
2026-04-27 12:48 -8.11165 114.66032 16521 ft 394 kts 156°
2026-04-27 12:48 -8.13709 114.67024 16005 ft 391 kts 156°
2026-04-27 12:48 -8.16239 114.68011 15488 ft 389 kts 156°
2026-04-27 12:48 -8.18758 114.68989 14969 ft 387 kts 156°
2026-04-27 12:49 -8.21265 114.69963 14457 ft 385 kts 156°
2026-04-27 12:49 -8.23730 114.70920 13939 ft 384 kts 156°
2026-04-27 12:49 -8.26215 114.71887 13474 ft 381 kts 156°
2026-04-27 12:49 -8.28678 114.72843 12966 ft 377 kts 156°
2026-04-27 12:50 -8.31117 114.73792 12449 ft 373 kts 156°
2026-04-27 12:50 -8.33504 114.74723 12214 ft 361 kts 156°
2026-04-27 12:50 -8.35806 114.75618 11992 ft 350 kts 156°
2026-04-27 12:50 -8.38061 114.76494 11590 ft 345 kts 156°
2026-04-27 12:51 -8.40286 114.77360 11284 ft 338 kts 156°
2026-04-27 12:51 -8.42441 114.78197 11165 ft 326 kts 156°
2026-04-27 12:51 -8.44490 114.78995 11048 ft 314 kts 156°
2026-04-27 12:51 -8.46496 114.79778 10930 ft 304 kts 156°
2026-04-27 12:52 -8.48435 114.80536 10757 ft 296 kts 156°
2026-04-27 12:52 -8.50341 114.81281 10437 ft 293 kts 156°
2026-04-27 12:52 -8.52362 114.81695 10065 ft 299 kts 179°
2026-04-27 12:52 -8.54384 114.81297 9578 ft 297 kts 194°
2026-04-27 12:53 -8.58370 114.79936 8147 ft 295 kts 197°
2026-04-27 12:53 -8.60283 114.79272 7648 ft 288 kts 197°
2026-04-27 12:53 -8.62141 114.78631 7065 ft 284 kts 197°
2026-04-27 12:54 -8.64004 114.77994 6488 ft 281 kts 197°
2026-04-27 12:54 -8.65846 114.77370 5909 ft 277 kts 196°
2026-04-27 12:54 -8.67674 114.76780 5374 ft 271 kts 195°
2026-04-27 12:54 -8.69415 114.76327 5252 ft 247 kts 183°
2026-04-27 12:55 -8.71045 114.76458 5123 ft 227 kts 161°
2026-04-27 12:55 -8.72409 114.77116 5004 ft 210 kts 142°
2026-04-27 12:55 -8.73409 114.78133 4756 ft 202 kts 123°
2026-04-27 12:55 -8.74007 114.79404 4414 ft 201 kts 105°
2026-04-27 12:56 -8.74220 114.80793 4082 ft 200 kts 97°
2026-04-27 12:56 -8.74382 114.82166 3744 ft 199 kts 98°
2026-04-27 12:56 -8.74550 114.83553 3412 ft 199 kts 98°
2026-04-27 12:56 -8.74719 114.84941 3200 ft 198 kts 97°
2026-04-27 12:57 -8.74889 114.86318 3064 ft 197 kts 97°
2026-04-27 12:57 -8.75059 114.87689 3020 ft 197 kts 98°
2026-04-27 12:57 -8.75228 114.89062 3022 ft 197 kts 97°
2026-04-27 12:57 -8.75396 114.90433 3023 ft 197 kts 97°
2026-04-27 12:58 -8.75481 114.91812 3028 ft 197 kts 91°
2026-04-27 12:58 -8.75483 114.93181 3028 ft 198 kts 91°
2026-04-27 12:58 -8.75491 114.94571 3027 ft 198 kts 91°
2026-04-27 12:58 -8.75502 114.95959 3028 ft 197 kts 92°
2026-04-27 12:59 -8.75513 114.97344 3029 ft 198 kts 91°
2026-04-27 12:59 -8.75521 114.98732 3029 ft 197 kts 91°
2026-04-27 12:59 -8.75515 115.00124 2955 ft 200 kts 90°
2026-04-27 12:59 -8.75467 115.01531 2699 ft 198 kts 89°
2026-04-27 13:00 -8.75407 115.02906 2419 ft 193 kts 88°
2026-04-27 13:00 -8.75348 115.04221 2153 ft 181 kts 88°
2026-04-27 13:00 -8.75294 115.05437 1917 ft 170 kts 88°
2026-04-27 13:00 -8.75245 115.06569 1723 ft 152 kts 89°
2026-04-27 13:01 -8.75202 115.07602 1520 ft 143 kts 89°
2026-04-27 13:01 -8.75162 115.08603 1335 ft 141 kts 89°
2026-04-27 13:01 -8.75123 115.09586 1155 ft 140 kts 89°
2026-04-27 13:01 -8.75086 115.10570 981 ft 140 kts 89°
2026-04-27 13:02 -8.75050 115.11551 809 ft 139 kts 89°
2026-04-27 13:02 -8.75014 115.12529 629 ft 141 kts 87°
2026-04-27 13:02 -8.74976 115.13524 432 ft 142 kts 86°
2026-04-27 13:02 -8.74938 115.14509 257 ft 142 kts 86°
2026-04-27 13:03 -8.74893 115.15511 61 ft 142 kts 85°
2026-04-27 13:03 -8.74856 115.16410 29 ft 103 kts 88°
2026-04-27 13:03 -8.74833 115.16964 28 ft 56 kts 87°
2026-04-27 13:03 -8.74820 115.17261 27 ft 24 kts 86°
2026-04-27 13:04 -8.74760 115.17316 28 ft 8 kts 360°
2026-04-27 13:04 -8.74736 115.17315 30 ft 0 kts 356°
2026-04-27 13:04 -8.74733 115.17315 30 ft 2 kts 356°
2026-04-27 13:04 -8.74698 115.17312 31 ft 8 kts 355°
2026-04-27 13:05 -8.74665 115.17297 32 ft 3 kts 311°
2026-04-27 13:05 -8.74659 115.17284 32 ft 4 kts 293°
2026-04-27 13:05 -8.74658 115.17221 32 ft 14 kts 267°
2026-04-27 13:05 -8.74663 115.17113 32 ft 15 kts 268°
2026-04-27 13:06 -8.74667 115.17019 32 ft 11 kts 266°
2026-04-27 13:06 -8.74670 115.16953 32 ft 7 kts 268°
2026-04-27 13:06 -8.74671 115.16914 32 ft 4 kts 268°
2026-04-27 13:06 -8.74672 115.16880 32 ft 8 kts 267°
2026-04-27 13:07 -8.74675 115.16815 32 ft 8 kts 267°
2026-04-27 13:07 -8.74677 115.16770 32 ft 5 kts 267°
2026-04-27 13:07 -8.74678 115.16747 32 ft 2 kts 267°
2026-04-27 13:07 -8.74680 115.16699 32 ft 12 kts 268°
2026-04-27 13:08 -8.74685 115.16597 32 ft 15 kts 267°
2026-04-27 13:08 -8.74666 115.16547 33 ft 4 kts
2026-04-27 13:08 -8.74650 115.16546 33 ft 3 kts 354°
2026-04-27 13:08 -8.74601 115.16542 33 ft 10 kts 358°
2026-04-27 13:09 -8.74549 115.16540 33 ft 5 kts 357°
2026-04-27 13:09 -8.74544 115.16540 33 ft 1 kts 358°
2026-04-27 13:10 -8.74561 115.16541 33 ft 0 kts 358°